CDT,Max TemperatureF,Mean TemperatureF,Min TemperatureF,Max Dew PointF,MeanDew PointF,Min DewpointF,Max Humidity, Mean Humidity, Min Humidity, Max Sea Level PressureIn, Mean Sea Level PressureIn, Min Sea Level PressureIn, Max VisibilityMiles, Mean VisibilityMiles, Min VisibilityMiles, Max Wind SpeedMPH, Mean Wind SpeedMPH, Max Gust SpeedMPH,PrecipitationIn, CloudCover, Events, WindDirDegrees
2013-7-1,78,68,57,61,56,53,93,68,42,30.27,30.23,30.18,,,,15,4,18,0.00,,,167
2013-7-2,81,69,56,61,57,53,93,68,42,30.19,30.13,30.03,,,,13,3,15,0.00,,,167
2013-7-3,83,70,56,64,59,54,87,65,43,30.01,29.89,29.75,,,,18,9,23,0.00,,,158
2013-7-4,86,73,59,68,59,52,90,61,32,29.78,29.75,29.69,,,,21,9,26,0.02,,,299
2013-7-5,83,71,58,67,63,58,97,78,58,29.83,29.77,29.70,,,,14,6,18,0.00,,,98
2013-7-6,83,73,62,71,64,58,100,78,55,29.85,29.78,29.73,,,,12,5,16,0.00,,,241
2013-7-7,75,66,57,63,58,54,93,75,57,29.99,29.95,29.87,,,,13,6,16,0.02,,,280
2013-7-8,84,73,61,68,63,58,93,76,58,30.04,29.93,29.84,,,,10,5,63,0.00,,,162
2013-7-9,72,66,60,62,58,54,100,79,57,30.13,29.99,29.72,,,,17,9,22,0.00,,,341
2013-7-10,77,65,52,62,58,52,100,79,57,30.13,30.06,29.97,,,,10,4,14,0.00,,,199
2013-7-11,86,74,61,75,65,58,93,77,61,29.96,29.80,29.64,,,,17,10,22,0.00,,,146
2013-7-12,83,76,69,71,67,64,100,79,58,29.88,29.73,29.61,,,,20,6,25,0.09,,,20
2013-7-13,84,72,59,70,65,58,100,82,63,30.02,29.93,29.84,,,,15,7,41,0.00,,,94
2013-7-14,70,64,58,64,57,55,100,81,61,30.24,30.18,30.02,,,,17,10,22,0.00,,,26
2013-7-15,79,70,60,72,66,58,93,85,76,30.20,30.07,29.91,,,,14,9,,0.00,,,134
2013-7-16,77,71,64,64,62,59,93,76,58,30.20,30.07,29.93,,,,23,10,38,0.00,,,33
2013-7-17,81,72,63,69,61,55,93,75,57,30.21,30.14,29.99,,,,22,12,26,0.00,,,69
2013-7-18,84,74,63,71,64,55,93,72,51,29.96,29.86,29.81,,,,21,9,26,0.00,,,316
2013-7-19,83,70,57,60,58,55,100,72,43,29.97,29.94,29.88,,,,20,12,24,0.00,,,302
2013-7-20,71,64,56,60,57,52,100,83,66,30.05,29.99,29.93,,,,26,8,35,0.09,,,96
2013-7-21,82,69,56,67,60,54,100,79,58,29.94,29.78,29.62,,,,20,11,25,0.00,,,161
2013-7-22,71,64,57,59,55,53,93,75,57,29.99,29.89,29.77,,,,17,8,21,0.00,,,341
2013-7-23,71,64,56,60,56,54,100,79,57,30.09,30.05,29.99,,,,8,5,,0.00,,,135
2013-7-24,81,67,53,62,57,52,100,73,45,30.08,30.03,29.99,,,,16,7,25,0.00,,,318
2013-7-25,70,63,56,58,53,47,93,71,49,30.19,30.06,29.97,,,,23,14,36,0.00,,,323
2013-7-26,67,58,48,51,47,43,100,71,42,30.32,30.27,30.21,,,,9,7,18,0.00,,,20
2013-7-27,69,56,42,50,46,42,100,73,45,30.29,30.19,30.08,,,,13,6,18,0.00,,,101
2013-7-28,74,61,47,53,48,45,93,69,44,30.08,30.02,29.95,,,,17,9,22,0.00,,,130
2013-7-29,69,63,56,64,55,48,90,79,67,30.03,29.95,29.90,,,,16,7,20,0.07,,,150
2013-7-30,75,63,50,60,56,51,100,79,57,30.14,30.09,30.04,,,,13,4,16,0.00,,,300
2013-7-31,77,63,49,56,50,47,96,67,38,30.19,30.13,30.05,,,,15,9,21,0.00,,,316